User: anonymous   Login
Location: Goheenville
(40.9070°N, 79.3720°W)
Time: 18:32:56
(UTC-04:00)
Language:

Cosmos 1727 Rocket - Orbit

View from above orbital plane
View from above orbital plane
View from above satellite
View from above satellite

Ground track
Ground track

The orbit data is extracted from the following two-line orbital elements,

1 16511U 86008B   17142.87533740 +.00000021 +00000-0 +64521-5 0  9994
2 16511 082.9463 238.6810 0023882 356.9018 133.3193 13.75807136572537
Epoch (UTC): 22 May 2017 21:00:29
Eccentricity: 0.0023882
inclination: 82.9463°
perigee height: 961 km
apogee height: 996 km
right ascension of ascending node: 238.6810°
argument of perigee: 356.9018°
revolutions per day: 13.75807136
mean anomaly at epoch: 133.3193°
orbit number at epoch: 57253

The dashed part of the orbit path shows where the satellite is in the earth's shadow,  

DLR